EW1948 Weather Reports


time (UTC)temp
C
wind
direction
speed
KPH
gust
KPH
rain 1hr
cm
rain 24hr
cm
rain mn
cm
humidity
%
barometer
mb
20260906035515 30 0 1.6 6.4 0.00 0.00 0.00 67 1013.9
20260906034515 30 0 1.6 4.8 0.00 0.00 0.00 67 1013.9
20260906033515 30 45 1.6 4.8 0.00 0.00 0.00 68 1013.8
20260906032515 29 0 1.6 3.2 0.00 0.00 0.00 68 1013.7
20260906031515 29 0.0 3.2 0.00 0.00 0.00 68 1013.6
20260906030515 29 0.0 0.0 0.00 0.00 0.00 68 1013.5
20260906025515 29 0.0 0.0 0.00 0.00 0.00 66 1013.4
20260906024515 29 0.0 0.0 0.00 0.00 0.00 66 1013.3
20260906023535 30 0.0 0.0 0.00 0.00 0.00 64 1013.2
20260906022555 30 0.0 0.0 0.00 0.00 0.00 64 1013.0
20260906021516 30 0.0 3.2 0.00 0.00 0.00 62 1012.9
20260906020515 31 0.0 0.0 0.00 0.00 0.00 61 1012.8
20260906015515 31 0.0 0.0 0.00 0.00 0.00 59 1012.6
20260906014515 31 0.0 0.0 0.00 0.00 0.00 59 1012.5
20260906013515 32 0.0 3.2 0.00 0.00 0.00 57 1012.4
20260906012515 32 0.0 3.2 0.00 0.00 0.00 55 1012.3
20260906011515 32 0.0 1.6 0.00 0.00 0.00 54 1012.2
20260906010515 32 0 1.6 3.2 0.00 0.00 0.00 53 1012.1
20260906005515 33 0.0 3.2 0.00 0.00 0.00 51 1012.0
20260906004515 34 0.0 1.6 0.00 0.00 0.00 49 1011.9
20260906003515 34 0 1.6 4.8 0.00 0.00 0.00 48 1011.8
20260906002515 35 0 1.6 4.8 0.00 0.00 0.00 48 1011.8
20260906001515 35 0 3.2 8.0 0.00 0.00 0.00 46 1011.9
20260906000515 36 0.0 3.2 0.00 0.00 0.00 45 1011.8
20260905235514 36 0 1.6 3.2 0.00 0.00 0.00 45 1011.7
20260905234514 36 315 1.6 6.4 0.00 0.00 0.00 44 1011.9
20260905233515 36 0 3.2 6.4 0.00 0.00 0.00 42 1012.0
20260905232515 37 338 3.2 9.7 0.00 0.00 0.00 42 1012.1
20260905231515 37 0 1.6 8.0 0.00 0.00 0.00 42 1012.0
20260905230515 37 315 3.2 8.0 0.00 0.00 0.00 42 1012.1
20260905225515 37 0 3.2 9.7 0.00 0.00 0.00 42 1012.0
20260905224515 37 0 3.2 8.0 0.00 0.00 0.00 43 1012.0
20260905223515 37 270 3.2 8.0 0.00 0.00 0.00 43 1012.0
20260905222515 37 338 3.2 8.0 0.00 0.00 0.00 42 1011.9
20260905221515 37 293 3.2 8.0 0.00 0.00 0.00 42 1012.0
20260905220515 37 315 3.2 9.7 0.00 0.00 0.00 41 1012.1
20260905215515 37 315 4.8 9.7 0.00 0.00 0.00 41 1012.1
20260905214514 37 315 3.2 6.4 0.00 0.00 0.00 40 1012.1
20260905213514 37 135 1.6 4.8 0.00 0.00 0.00 40 1012.0
20260905212514 37 0 3.2 6.4 0.00 0.00 0.00 42 1011.9
20260905211514 36 293 3.2 9.7 0.00 0.00 0.00 44 1012.0
20260905210515 36 293 4.8 8.0 0.00 0.00 0.00 44 1012.1
20260905205514 36 203 4.8 9.7 0.00 0.00 0.00 43 1012.2
20260905204514 37 0 3.2 9.7 0.00 0.00 0.00 40 1012.5
20260905203514 37 0 4.8 11.3 0.00 0.00 0.00 38 1012.3
20260905202514 39 45 1.6 4.8 0.00 0.00 0.00 35 1012.4
20260905201514 40 270 4.8 9.7 0.00 0.00 0.00 34 1012.5
20260905200514 40 0 4.8 9.7 0.00 0.00 0.00 34 1012.6
20260905195515 40 0 4.8 11.3 0.00 0.00 0.00 35 1012.7
20260905194514 40 338 3.2 11.3 0.00 0.00 0.00 36 1012.8
20260905193534 39 293 4.8 12.9 0.00 0.00 0.00 35 1013.1
20260905192514 38 293 3.2 8.0 0.00 0.00 0.00 35 1013.1
20260905191514 40 293 4.8 11.3 0.00 0.00 0.00 35 1013.2
20260905190514 40 338 4.8 8.0 0.00 0.00 0.00 37 1013.3
20260905185514 39 338 6.4 11.3 0.00 0.00 0.00 39 1013.4
20260905184514 38 0 3.2 8.0 0.00 0.00 0.00 39 1013.5
20260905183514 39 270 4.8 12.9 0.00 0.00 0.00 38 1013.6
20260905182514 39 23 3.2 6.4 0.00 0.00 0.00 39 1013.7
20260905181514 38 315 3.2 8.0 0.00 0.00 0.00 40 1013.8
20260905180534 38 248 3.2 8.0 0.00 0.00 0.00 41 1013.8
20260905175514 37 248 4.8 11.3 0.00 0.00 0.00 43 1013.9
20260905174514 37 23 4.8 14.5 0.00 0.00 0.00 43 1014.0
20260905173514 37 315 3.2 9.7 0.00 0.00 0.00 44 1014.1
20260905172514 37 270 3.2 8.0 0.00 0.00 0.00 45 1014.2
20260905171514 37 338 3.2 9.7 0.00 0.00 0.00 47 1014.4
20260905170514 36 315 3.2 8.0 0.00 0.00 0.00 48 1014.4
20260905165514 36 0 3.2 6.4 0.00 0.00 0.00 48 1014.7
20260905164514 36 293 3.2 8.0 0.00 0.00 0.00 50 1014.9
20260905163534 36 248 4.8 9.7 0.00 0.00 0.00 49 1015.0
20260905162514 35 315 3.2 8.0 0.00 0.00 0.00 51 1015.0
20260905161514 35 315 4.8 9.7 0.00 0.00 0.00 53 1015.0
20260905160514 35 0 4.8 14.5 0.00 0.00 0.00 52 1015.1
20260905155554 34 338 3.2 8.0 0.00 0.00 0.00 55 1015.1
20260905154514 33 0 3.2 9.7 0.00 0.00 0.00 56 1015.0
20260905153514 33 0 4.8 8.0 0.00 0.00 0.00 57 1015.1
20260905152514 33 0 4.8 8.0 0.00 0.00 0.00 58 1015.1
20260905151534 32 315 3.2 8.0 0.00 0.00 0.00 58 1015.1
20260905150514 32 315 3.2 8.0 0.00 0.00 0.00 58 1015.1
20260905145514 32 0 4.8 9.7 0.00 0.00 0.00 59 1015.1
20260905144514 31 338 4.8 9.7 0.00 0.00 0.00 60 1015.0
20260905143514 31 315 4.8 9.7 0.00 0.00 0.00 60 1015.0
20260905142514 31 315 3.2 11.3 0.00 0.00 0.00 61 1015.0
20260905141514 31 338 3.2 6.4 0.00 0.00 0.00 62 1015.0
20260905140514 30 338 1.6 6.4 0.00 0.00 0.00 64 1015.0
20260905135514 30 180 1.6 3.2 0.00 0.00 0.00 66 1014.9
20260905134554 29 180 3.2 6.4 0.00 0.00 0.00 68 1014.8
20260905133514 28 0.0 3.2 0.00 0.00 0.00 72 1014.7
20260905132513 28 158 1.6 4.8 0.00 0.00 0.00 76 1014.7
20260905131514 27 0.0 1.6 0.00 0.00 0.00 80 1014.6
20260905130534 26 0.0 3.2 0.00 0.00 0.00 84 1014.7
20260905125513 26 158 3.2 4.8 0.00 0.00 0.00 85 1014.6
20260905124514 25 158 3.2 4.8 0.00 0.00 0.00 87 1014.5
20260905123534 25 0.0 0.0 0.00 0.00 0.00 88 1014.4
20260905122513 24 0.0 0.0 0.00 0.00 0.00 89 1014.3
20260905121514 24 0.0 0.0 0.00 0.00 0.00 89 1014.3
20260905120513 24 0.0 1.6 0.00 0.00 0.00 89 1014.2
20260905115513 24 0.0 1.6 0.00 0.00 0.00 89 1014.1
20260905114514 24 0.0 1.6 0.00 0.00 0.00 89 1014.0
20260905113513 24 0.0 3.2 0.00 0.00 0.00 89 1014.1
20260905112514 24 0.0 0.0 0.00 0.00 0.00 89 1014.0
20260905111514 24 0.0 0.0 0.00 0.00 0.00 89 1014.0
20260905110516 24 0.0 0.0 0.00 0.00 0.00 89 1013.7
20260905105516 24 0.0 0.0 0.00 0.00 0.00 89 1013.8
20260905104516 24 0.0 0.0 0.00 0.00 0.00 89 1013.8
20260905103516 24 0.0 0.0 0.00 0.00 0.00 89 1013.8
20260905102535 24 0.0 0.0 0.00 0.00 0.00 89 1013.8
20260905101515 24 0.0 0.0 0.00 0.00 0.00 88 1014.0
20260905100516 24 0.0 0.0 0.00 0.00 0.00 88 1013.9
20260905095515 24 0.0 0.0 0.00 0.00 0.00 88 1013.9
20260905094515 24 0.0 0.0 0.00 0.00 0.00 88 1013.9
20260905093515 25 0.0 0.0 0.00 0.00 0.00 88 1013.8
20260905092516 25 0.0 0.0 0.00 0.00 0.00 88 1013.9
20260905091515 25 0.0 0.0 0.00 0.00 0.00 88 1013.8
20260905090515 25 0.0 0.0 0.00 0.00 0.00 87 1014.0
20260905085515 25 0.0 0.0 0.00 0.00 0.00 87 1013.9
20260905084535 25 0.0 0.0 0.00 0.00 0.00 87 1013.9
20260905083515 25 0.0 0.0 0.00 0.00 0.00 86 1014.0
20260905082515 25 0.0 0.0 0.00 0.00 0.00 86 1014.1
20260905081515 25 0.0 0.0 0.00 0.00 0.00 85 1014.2
20260905080515 25 0.0 0.0 0.00 0.00 0.00 85 1014.3
20260905075515 25 0.0 0.0 0.00 0.00 0.00 84 1014.2
20260905074515 26 0.0 0.0 0.00 0.00 0.00 83 1014.2
20260905073515 26 0.0 0.0 0.00 0.00 0.00 83 1014.1
20260905072515 26 0.0 0.0 0.00 0.00 0.00 82 1014.3
20260905071515 26 0.0 0.0 0.00 0.00 0.00 82 1014.3
20260905070515 26 0.0 0.0 0.00 0.00 0.00 82 1014.3
20260905065515 26 0.0 0.0 0.00 0.00 0.00 82 1014.3
20260905064535 26 0.0 0.0 0.00 0.00 0.00 82 1014.4
20260905063515 26 0.0 0.0 0.00 0.00 0.00 82 1014.2
20260905062515 26 0.0 0.0 0.00 0.00 0.00 82 1014.4
20260905061515 26 0.0 0.0 0.00 0.00 0.00 82 1014.4
20260905060515 26 0.0 0.0 0.00 0.00 0.00 81 1014.5
20260905055535 26 0.0 0.0 0.00 0.00 0.00 81 1014.4
20260905054515 26 0.0 0.0 0.00 0.00 0.00 81 1014.4
20260905053515 26 0.0 0.0 0.00 0.00 0.00 81 1014.5
20260905052515 26 0.0 0.0 0.00 0.00 0.00 81 1014.6
20260905051515 26 0.0 0.0 0.00 0.00 0.00 81 1014.6
20260905050515 27 0.0 0.0 0.00 0.00 0.00 80 1014.4
20260905045515 27 0.0 0.0 0.00 0.00 0.00 79 1014.4
20260905044515 27 0.0 0.0 0.00 0.00 0.00 79 1014.4
20260905043515 27 0.0 0.0 0.00 0.00 0.00 78 1014.4
20260905042515 27 0.0 0.0 0.00 0.00 0.00 78 1014.3
20260905041515 27 0.0 0.0 0.00 0.00 0.00 77 1014.3
20260905040515 27 0.0 0.0 0.00 0.00 0.00 77 1014.3